GFSSW_sfc_rhum_057.txt.gz
RH
83 82 83 82 83 84 84 85 84 84 84 85 87 88 90 93 87 53 18 16 30 83 69 62 63 45 46 47 40 38 50 49 40 40 32 28 27 25 29 44 41 42 49 51 57
83 82 82 81 82 84 85 86 86 86 85 86 86 87 90 94 59 27 29 61 78 83 31 32 31 36 42 41 32 32 46 38 31 30 30 25 24 24 30 47 55 51 52 60 67
83 83 81 80 79 82 85 85 85 86 85 85 86 87 90 94 33 18 63 72 81 76 16 15 14 12 13 12 15 30 27 24 20 22 25 27 25 24 28 47 54 56 64 67 72
82 82 81 80 80 80 82 84 84 85 85 85 85 86 92 68 24 16 77 79 79 32 19 13 12 12 15 15 15 17 14 14 16 22 26 25 26 28 26 26 42 46 53 66 83
82 83 81 81 80 81 81 82 85 85 85 84 84 86 60 22 14 44 72 71 32 17 13 10 12 14 18 14 12 20 13 11 10 13 24 24 28 30 31 39 43 43 47 70 76
82 82 81 81 82 85 86 86 85 85 83 83 83 88 40 11 7 36 27 27 17 12 10 8 9 13 14 13 15 12 12 11 16 28 29 26 33 30 34 45 47 46 51 70 72
82 82 83 82 82 84 86 86 84 82 81 80 79 66 39 8 9 26 19 14 12 10 8 10 12 14 15 14 12 11 19 19 18 23 31 26 31 34 36 46 49 49 56 68 72
82 82 84 85 85 85 88 87 82 81 81 80 79 68 18 10 17 12 16 12 12 10 10 10 11 12 13 13 10 16 26 24 19 21 25 21 26 27 42 50 54 50 57 74 76
82 83 85 87 89 88 89 85 81 76 78 80 74 40 26 20 13 13 13 11 12 11 10 7 10 12 10 13 13 17 21 27 22 18 20 22 23 26 34 47 52 51 64 76 82
84 86 88 89 89 90 88 86 73 78 66 54 34 21 9 9 10 8 10 11 8 8 9 11 13 14 15 13 13 18 23 26 25 20 19 22 18 25 30 38 48 50 69 77 81
85 87 88 89 89 88 93 31 19 19 26 20 21 12 13 10 11 9 8 6 8 12 12 14 14 16 13 13 12 13 15 17 13 14 18 19 22 20 32 28 40 49 71 78 80
83 87 89 89 88 87 93 25 25 22 21 13 13 18 13 12 12 9 8 10 12 13 16 14 14 11 13 13 13 12 13 13 12 15 22 22 31 41 33 29 34 54 74 78 82
85 88 89 90 88 64 34 21 22 28 26 15 13 11 10 10 11 10 7 10 10 14 14 14 11 10 12 12 13 14 14 12 14 22 22 24 26 42 47 48 41 61 66 74 79
88 88 90 92 44 61 26 23 27 25 25 14 15 10 8 8 8 8 7 7 14 9 13 14 12 10 12 11 11 15 11 14 22 25 21 22 25 39 56 53 74 66 75 80 83
88 88 90 89 83 48 20 33 23 15 17 9 11 7 7 6 5 6 8 8 9 10 12 12 12 13 12 9 9 9 12 19 20 20 22 19 21 32 57 53 67 89 80 85 81
87 88 87 77 90 60 46 32 20 24 22 13 10 8 8 8 6 8 6 6 8 10 14 11 12 10 10 8 8 9 10 15 24 22 21 22 28 31 54 52 64 88 86 85 86
87 88 87 72 23 45 37 22 24 32 15 11 11 10 10 9 8 7 8 9 9 12 14 13 12 11 10 12 11 10 14 18 20 23 21 28 35 45 63 84 78 71 73 84 70
87 90 91 81 83 47 28 23 33 19 20 14 12 12 13 10 8 8 10 10 11 14 20 18 16 12 10 11 12 14 12 18 20 23 22 26 30 88 74 72 56 62 64 52 46
90 93 91 77 71 41 28 34 28 24 17 14 13 15 15 12 10 11 11 10 9 12 12 21 17 13 11 10 10 18 17 13 22 40 24 30 73 79 72 64 58 64 61 57 88
99 93 63 55 53 32 32 41 29 21 14 14 22 17 16 14 15 18 12 11 10 11 14 13 15 11 10 12 13 11 13 16 24 30 32 28 52 86 91 68 68 65 63 66 80
93 61 32 49 29 29 35 35 25 15 15 20 23 21 16 15 19 18 18 16 15 12 12 17 16 12 13 15 13 13 18 24 22 28 26 33 43 47 81 77 75 72 64 64 83
90 56 37 34 29 41 33 28 28 16 18 17 19 18 17 15 19 19 22 21 14 18 15 17 17 18 14 13 15 13 14 18 23 21 45 40 38 58 68 73 71 69 63 74 78
67 72 48 23 32 31 28 19 18 14 13 17 19 17 18 15 17 20 20 15 17 25 31 25 23 19 15 16 14 24 22 25 32 35 44 39 37 63 65 73 68 67 68 71 64
88 70 48 29 34 22 28 22 19 15 14 16 16 19 21 22 22 23 19 16 16 25 67 36 32 20 20 18 22 23 23 24 29 34 38 34 46 69 72 76 69 62 67 69 56
88 54 56 48 31 30 25 23 22 19 18 18 21 17 17 27 23 23 29 23 17 37 32 28 21 49 27 23 21 21 20 21 26 28 30 28 57 55 56 64 62 59 60 63 61
56 60 46 50 47 43 46 25 21 17 20 23 20 18 20 21 20 31 37 35 27 24 30 47 43 40 27 26 27 22 19 25 24 31 35 57 62 56 64 65 62 57 54 62 70
74 68 57 58 46 45 39 32 27 27 24 24 28 25 33 31 27 30 31 34 28 53 31 46 46 54 48 38 31 23 24 25 30 36 46 57 45 62 72 67 60 59 57 63 70

GFSSW_sfc_rhum_060.txt.gz
RH
82 82 82 81 82 82 83 83 83 83 83 85 85 85 88 92 86 60 14 17 44 87 73 72 64 55 59 59 51 44 57 50 41 41 31 35 32 42 39 49 46 47 59 58 67
82 82 81 80 81 84 85 86 86 86 85 86 86 84 87 93 58 25 27 68 80 79 51 49 52 44 53 48 45 42 53 36 31 32 31 27 28 36 49 53 58 65 61 63 73
82 82 81 79 78 82 84 84 85 85 85 85 85 84 87 94 27 18 59 76 73 81 27 18 21 32 32 26 21 37 30 26 22 27 28 31 26 27 49 62 57 70 74 74 75
83 81 80 79 79 80 82 83 84 85 85 85 85 85 88 74 27 19 79 84 75 56 18 15 13 12 14 16 14 21 20 18 16 20 27 31 28 28 42 40 42 63 68 73 76
82 80 80 80 81 81 81 82 85 85 84 84 85 86 57 17 8 59 76 80 59 24 15 13 10 12 17 16 15 16 14 13 12 16 24 27 29 28 29 37 48 61 70 74 75
82 81 81 81 81 84 85 85 85 84 83 82 84 85 38 10 8 52 41 29 20 14 10 9 7 13 16 15 16 12 13 13 18 27 30 31 34 30 33 50 53 66 74 75 80
82 81 82 80 81 83 85 85 83 83 83 81 80 68 31 7 13 31 26 18 15 11 7 10 8 15 16 14 14 12 16 19 17 24 32 30 34 33 44 51 54 59 72 77 78
82 81 82 82 83 84 87 85 83 82 84 82 79 69 13 10 18 19 19 15 13 12 11 12 13 14 15 12 9 15 24 23 16 22 25 27 29 26 55 55 59 54 72 75 78
82 82 84 85 86 87 87 86 82 76 77 82 71 46 17 19 11 14 14 11 13 13 13 8 11 14 12 12 11 15 18 25 23 20 24 27 25 21 54 55 61 57 76 77 78
83 85 87 88 88 87 87 87 74 78 71 56 38 19 10 9 12 12 13 14 12 11 12 12 15 16 16 14 14 17 16 19 20 18 22 26 27 22 40 58 59 61 78 80 78
84 87 88 89 89 86 93 28 22 21 25 20 20 10 13 12 12 11 10 7 8 9 10 17 15 17 14 14 13 15 16 16 12 13 19 21 24 22 28 47 60 68 82 86 80
82 86 89 90 89 88 85 25 23 25 26 17 16 18 17 14 12 10 8 9 12 12 17 15 16 12 16 16 15 15 16 15 12 17 23 28 24 49 40 43 47 63 82 84 83
85 88 90 90 89 60 46 25 30 29 27 17 15 13 12 13 13 10 8 10 10 13 14 16 12 11 13 14 16 17 16 15 12 19 25 24 21 35 48 52 60 73 78 80 83
87 88 90 91 40 67 35 30 35 30 21 14 14 11 10 11 10 10 8 8 13 10 13 14 12 11 14 13 13 19 13 11 18 28 23 23 23 29 56 86 93 93 93 89 86
88 88 89 88 90 47 26 46 33 16 17 10 11 9 10 7 6 9 10 8 10 11 11 12 14 14 14 11 11 11 13 17 22 24 23 22 22 22 61 94 91 89 68 67 80
88 87 86 81 90 65 50 41 22 23 23 12 13 9 10 9 7 9 8 8 10 10 16 11 13 11 10 11 10 12 11 15 24 24 21 22 28 29 62 81 92 75 61 56 58
87 87 86 77 24 52 45 22 26 31 15 13 14 14 12 9 8 8 9 9 11 13 14 12 13 12 11 14 14 12 14 19 20 20 21 33 35 35 71 65 84 76 71 68 54
87 91 91 84 93 57 28 24 33 19 20 17 15 16 16 13 10 9 10 11 14 12 18 13 13 13 12 11 13 13 13 19 17 23 21 31 32 43 80 76 71 69 64 62 54
90 94 92 83 80 49 28 33 32 25 20 17 16 17 17 14 13 12 11 10 9 12 11 21 16 13 12 12 10 20 18 16 23 35 25 30 75 71 79 73 70 70 65 63 56
99 95 74 72 68 35 31 41 26 22 17 16 24 20 21 16 15 18 15 14 12 11 12 13 15 13 10 13 13 15 14 18 25 28 32 30 59 64 94 83 70 69 67 70 91
90 61 45 69 41 31 36 37 26 20 17 22 25 22 22 19 20 20 22 16 18 18 13 16 15 13 15 17 14 15 19 25 26 29 28 31 37 48 79 78 69 65 61 69 82
80 44 49 40 27 49 36 30 31 18 19 17 23 21 22 19 17 19 22 22 17 23 16 24 17 17 12 16 19 17 17 22 24 24 45 37 33 45 68 78 74 66 67 69 74
74 69 58 31 36 38 35 23 20 16 15 17 22 19 20 20 20 17 21 16 16 31 36 19 22 20 16 14 20 24 23 27 32 40 49 36 30 62 71 77 73 71 73 77 80
82 74 52 36 39 31 30 26 22 17 16 15 16 22 22 22 24 22 21 17 18 28 55 39 30 20 18 16 22 33 28 30 30 35 39 36 30 36 65 73 74 71 75 66 67
82 53 57 39 38 38 32 27 24 24 19 19 24 18 19 28 23 25 34 24 18 37 40 26 31 48 29 23 25 24 22 26 31 31 29 31 37 35 49 66 69 68 69 67 63
56 68 59 51 56 46 50 35 26 24 23 22 24 19 19 20 17 22 35 36 28 25 40 48 42 56 31 26 31 27 24 26 29 34 41 47 46 47 54 62 61 60 61 62 63
67 74 69 62 54 46 38 33 28 30 22 20 27 33 27 27 26 33 32 35 33 47 31 43 44 50 49 46 31 28 25 27 32 39 43 46 36 44 53 70 62 60 63 58 59

GFSSW_sfc_rhum_063.txt.gz
RH
82 82 82 81 83 84 84 84 85 84 84 84 84 85 86 89 88 56 12 18 58 87 65 49 48 53 57 51 43 37 30 22 16 20 16 21 26 30 31 37 36 37 40 41 54
82 81 81 79 81 83 85 85 86 84 85 85 84 85 86 90 43 16 31 75 84 78 46 43 46 46 43 35 32 30 28 16 14 13 14 17 20 28 34 38 42 45 49 52 57
82 80 79 79 79 82 84 84 84 84 85 85 84 85 88 82 17 13 73 82 78 55 31 24 29 33 24 20 20 26 17 11 10 12 12 15 19 23 29 42 35 43 48 54 56
81 80 79 79 78 79 81 82 83 84 85 85 85 87 88 43 18 14 79 79 76 26 23 13 23 10 9 10 11 17 14 14 11 8 12 20 18 20 25 22 28 37 42 52 56
82 81 80 79 78 79 80 82 84 84 84 85 85 87 31 7 5 46 82 75 54 18 11 10 8 8 8 10 11 11 10 9 8 14 17 20 19 18 23 25 32 43 48 50 50
82 82 81 79 80 83 83 83 83 84 84 84 84 87 14 6 13 40 44 47 28 15 10 8 5 6 10 11 11 9 9 8 11 20 22 21 22 22 25 36 46 50 48 46 49
82 81 81 79 79 82 84 83 82 84 85 83 83 56 15 5 17 26 20 16 13 10 6 6 4 8 9 10 9 8 9 8 12 16 22 22 23 24 32 40 49 52 49 50 55
82 81 81 81 82 84 85 84 84 83 85 84 80 44 7 6 12 17 19 12 9 9 6 7 9 9 9 9 7 8 12 11 11 14 23 19 18 15 36 40 50 53 55 58 61
82 82 83 84 86 87 86 86 82 76 78 79 43 20 6 17 7 8 12 9 9 9 9 7 8 9 8 8 9 10 9 13 12 11 16 15 11 12 34 39 46 52 59 59 60
83 85 87 88 88 87 87 87 72 71 62 50 33 15 8 5 8 8 10 9 9 7 8 9 10 10 10 8 14 10 9 9 12 11 9 9 11 10 22 38 44 48 57 59 58
85 86 87 88 88 86 77 21 14 15 15 14 14 11 9 9 9 9 7 9 6 7 7 11 9 11 10 11 10 10 11 12 10 9 11 13 16 14 25 36 46 48 60 59 56
84 87 88 89 88 88 59 18 20 19 18 14 14 13 12 10 10 8 7 7 9 9 11 10 11 10 10 11 10 11 11 10 9 12 12 14 15 34 40 40 35 48 60 58 61
86 88 89 89 88 47 36 20 22 19 20 13 12 10 9 10 9 8 7 8 8 10 10 9 8 10 9 10 10 9 11 11 10 11 15 14 14 30 48 55 45 46 56 56 62
87 88 89 91 38 46 24 25 23 22 15 9 8 8 9 9 8 7 6 7 8 8 11 9 8 9 10 10 10 11 9 9 10 12 10 16 9 27 61 73 65 63 61 58 63
87 87 88 87 53 25 21 27 21 18 14 7 7 7 8 6 5 6 8 7 8 9 10 8 10 10 11 9 10 9 9 12 13 15 14 13 10 17 46 55 78 74 62 58 56
87 87 84 66 61 33 32 26 19 17 17 8 9 6 7 7 5 6 7 7 8 9 10 8 8 8 7 8 9 8 9 12 15 12 11 16 15 14 27 40 58 64 60 59 57
87 86 84 68 17 38 33 18 20 20 12 9 10 9 10 7 6 6 8 10 9 14 14 9 8 7 8 8 9 9 11 13 12 11 11 23 19 18 29 40 45 58 56 47 47
87 90 81 69 58 41 21 18 31 17 14 12 12 10 11 10 7 6 9 9 8 10 11 12 10 8 8 8 9 10 11 12 18 12 10 22 17 12 41 54 57 50 56 47 44
89 58 59 50 63 46 19 24 21 22 15 13 10 12 12 11 10 9 8 8 8 10 11 13 11 9 9 8 8 13 14 10 18 23 14 13 23 29 44 54 59 60 60 55 46
87 62 43 53 56 26 18 29 21 15 14 11 15 14 15 14 11 12 10 10 8 8 10 12 11 8 8 8 10 11 11 13 16 25 21 18 26 17 37 46 60 59 57 53 48
57 37 40 52 34 20 17 23 20 15 16 13 16 13 14 14 13 11 12 12 14 12 10 10 12 10 11 12 10 12 12 16 14 18 14 15 15 26 36 43 52 53 49 47 43
46 23 41 39 19 29 22 23 32 12 14 13 15 13 11 12 15 12 13 13 15 15 13 12 12 13 8 10 11 11 13 17 13 28 24 20 11 15 26 36 50 44 48 46 42
41 41 42 30 20 23 23 18 16 13 13 13 15 15 14 15 20 13 13 11 14 20 20 16 18 13 14 11 14 14 14 16 24 27 35 19 13 33 39 41 50 47 48 49 47
57 52 41 33 31 24 23 23 20 14 14 12 11 13 16 17 18 16 14 12 14 19 54 33 24 21 11 14 14 20 17 17 20 21 25 17 19 20 25 40 43 55 51 52 52
54 40 53 34 29 29 26 25 24 24 17 16 17 14 16 22 17 17 20 15 12 39 30 25 29 26 19 17 17 15 16 18 21 21 16 19 22 22 32 40 41 45 55 55 48
52 60 53 42 46 39 43 34 27 24 22 20 22 16 16 21 19 18 21 23 18 18 25 31 35 34 22 20 22 16 15 18 18 21 22 26 25 36 35 36 37 44 51 56 52
41 59 57 53 42 35 30 29 26 26 23 16 17 22 20 15 15 21 22 25 25 26 29 34 32 35 22 30 20 19 20 16 23 32 37 24 41 52 51 52 48 47 44 46 47

GFSSW_sfc_rhum_069.txt.gz
RH
79 80 81 83 81 82 82 82 82 82 82 82 84 85 86 88 86 31 8 19 32 83 71 26 24 22 21 20 14 14 18 10 8 9 9 7 10 12 12 18 20 19 19 21 26
80 80 82 81 81 80 81 81 82 82 82 83 84 85 87 89 18 9 39 80 76 79 28 21 21 19 18 12 10 11 10 9 7 7 7 7 8 10 15 16 23 23 20 24 26
80 81 81 78 78 80 80 80 81 82 82 83 84 86 88 68 15 9 78 84 75 71 14 15 11 16 13 8 8 9 10 8 7 6 6 7 7 8 12 15 17 24 24 26 28
81 80 79 78 77 79 80 81 81 81 82 83 85 87 86 20 11 17 82 84 77 26 14 14 10 14 12 9 8 9 8 7 6 6 6 9 7 8 10 11 13 17 23 25 28
81 80 80 79 80 80 81 82 81 82 83 84 86 87 25 10 4 35 85 76 31 24 13 12 11 11 11 8 8 9 8 7 6 6 8 8 9 10 10 10 13 17 22 24 26
81 82 83 83 81 82 82 82 81 83 83 85 85 90 21 6 7 25 22 29 15 12 10 8 8 8 8 8 8 8 8 7 6 7 9 9 8 9 13 12 16 19 22 23 24
82 84 85 83 82 83 81 81 82 83 84 84 82 35 8 5 4 13 16 16 11 9 8 6 6 6 6 8 6 6 8 8 6 6 7 7 8 16 11 14 18 20 21 23 24
82 83 85 85 85 84 82 81 82 81 84 83 79 22 8 3 4 9 12 12 10 7 6 4 4 5 6 6 7 7 7 8 6 7 6 7 9 8 10 15 20 20 21 24 26
84 85 85 85 84 83 82 82 79 78 76 70 31 14 6 15 4 4 8 9 8 6 6 5 5 6 5 6 6 7 9 8 7 6 6 7 9 7 8 13 19 21 22 24 28
84 85 86 85 82 82 82 81 56 61 51 23 15 10 5 4 3 3 3 5 5 5 6 7 6 6 5 5 7 7 8 7 8 6 6 7 8 6 8 10 15 21 24 25 28
83 85 86 86 84 80 53 11 12 19 13 6 6 6 4 3 4 5 3 4 5 5 7 6 6 7 6 6 6 6 7 8 8 6 7 7 9 7 9 9 12 21 26 26 26
83 85 86 86 85 82 45 9 11 10 11 6 5 4 4 4 6 4 4 6 7 7 6 5 6 5 4 5 6 7 7 7 6 5 6 7 8 7 8 11 11 17 22 24 25
84 85 86 87 83 49 8 10 9 7 11 5 4 4 3 3 4 4 4 5 6 7 6 6 4 4 5 6 6 6 7 7 7 6 5 7 10 9 8 14 16 14 16 21 24
83 84 86 88 45 9 10 11 6 8 12 5 4 4 4 3 4 3 3 5 6 7 6 5 4 4 5 6 5 7 5 5 5 7 7 6 10 11 8 12 16 15 15 19 24
82 84 87 87 30 10 8 6 6 11 14 4 3 3 3 4 4 4 3 4 7 7 6 7 6 6 6 5 4 6 4 6 6 7 8 6 9 9 9 11 11 13 18 19 23
82 84 84 23 20 11 7 6 9 13 15 6 4 4 5 5 4 4 4 3 4 6 6 6 4 5 5 4 3 4 6 7 6 6 8 8 8 9 9 11 9 15 20 23 26
82 82 74 28 9 7 8 9 14 14 7 7 4 4 4 5 6 5 6 6 6 10 11 7 6 5 5 6 5 5 7 10 11 9 9 7 8 10 7 6 9 11 23 28 28
83 82 50 23 12 12 10 11 23 11 9 5 5 4 5 4 4 5 7 7 6 6 7 9 10 6 5 6 7 6 7 9 17 11 9 10 12 8 6 6 9 19 21 30 28
84 12 11 13 16 16 12 13 15 13 8 7 6 6 6 4 5 5 6 6 6 7 11 9 9 5 5 5 5 7 8 5 9 9 9 8 8 7 6 6 7 19 25 30 29
36 16 11 15 18 16 11 20 11 8 8 8 10 8 8 6 6 6 7 5 5 4 5 8 11 5 5 5 5 6 5 8 8 18 18 10 11 9 11 9 11 19 23 30 27
36 11 20 16 19 14 10 10 9 6 9 10 9 8 7 8 8 8 6 5 4 4 4 5 8 8 6 7 6 6 7 7 6 8 11 12 10 11 10 9 12 19 22 29 27
15 12 17 14 18 10 9 8 17 7 7 8 8 8 10 8 9 9 8 8 8 6 6 6 6 10 7 5 5 5 8 8 10 17 10 11 9 5 7 11 15 17 23 27 28
18 10 15 14 17 11 9 7 6 8 9 8 9 8 7 9 13 9 9 8 9 9 10 7 8 10 11 6 6 7 6 7 8 10 16 14 13 10 11 14 21 21 25 30 28
20 15 17 18 13 17 16 12 9 6 7 8 8 8 9 10 10 13 10 7 8 10 47 25 11 13 8 11 7 10 7 7 8 12 12 9 10 16 20 22 24 25 31 33 30
20 16 26 24 17 14 14 16 16 14 10 11 12 9 10 14 12 11 9 8 7 31 15 13 19 12 10 7 9 8 6 6 8 9 11 15 32 50 29 29 27 28 32 36 34
25 26 25 25 28 26 30 23 21 17 16 16 15 11 10 13 13 12 9 11 12 9 12 13 22 19 14 7 8 8 6 7 7 7 8 8 33 19 28 28 30 30 28 33 37
14 16 28 34 23 24 20 22 20 18 17 14 13 12 12 11 9 7 7 10 12 15 15 18 20 23 18 10 9 11 8 7 8 7 8 20 31 25 31 40 41 39 37 37 32

GFSSW_sfc_rhum_072.txt.gz
RH
78 80 82 83 81 82 82 82 82 82 82 83 83 84 86 89 86 33 13 18 30 81 72 22 27 21 18 20 16 11 16 16 8 8 8 6 9 10 10 17 17 17 19 24 27
79 81 82 81 80 81 82 82 82 82 82 83 84 85 87 89 19 7 24 77 72 77 21 19 20 18 18 16 10 10 14 10 6 7 7 6 7 8 11 23 23 22 24 25 27
81 82 81 79 77 80 81 82 81 82 83 84 84 85 89 76 11 6 82 82 73 65 11 14 14 12 16 12 9 8 11 8 7 6 6 6 8 7 10 26 34 26 28 27 30
80 80 79 77 76 79 80 80 81 82 83 84 85 87 88 21 12 15 80 82 76 22 14 14 14 14 13 13 8 9 8 8 7 6 6 8 7 7 9 11 15 22 24 26 30
81 81 79 79 80 80 81 81 81 81 82 83 86 88 25 8 8 31 84 73 32 25 17 15 14 12 12 10 8 8 8 7 7 6 6 7 8 10 8 10 11 20 22 26 28
82 84 85 84 82 81 80 80 80 80 82 83 85 91 23 9 9 21 20 28 15 16 15 12 12 9 9 8 8 7 7 7 7 7 6 8 7 9 14 11 14 22 23 24 26
83 85 85 85 83 81 80 78 78 79 81 81 83 38 11 7 3 12 15 15 10 10 10 8 8 8 8 9 6 7 8 6 7 7 6 6 8 9 12 12 15 19 22 24 26
83 84 85 85 84 83 82 79 78 78 80 80 80 27 10 4 3 3 10 12 10 9 8 6 4 5 6 6 6 7 7 8 6 6 6 7 10 10 10 12 17 18 20 23 25
82 84 85 85 83 82 82 79 76 76 75 73 35 18 11 12 4 3 7 11 10 8 7 6 5 6 6 6 7 6 7 8 7 5 7 7 9 7 6 12 16 18 20 22 26
82 83 85 84 83 82 80 81 55 55 49 23 16 12 7 5 3 3 4 8 9 8 7 6 6 7 6 6 8 8 6 6 8 6 6 6 7 6 6 8 11 17 21 23 27
82 83 84 84 83 82 58 17 11 18 13 10 7 7 3 3 3 3 2 4 6 6 8 6 8 8 6 6 6 6 6 7 6 6 7 7 8 6 7 7 8 16 24 25 26
81 82 84 84 83 77 53 12 10 8 10 6 6 7 5 4 4 4 3 4 6 8 6 7 8 6 5 5 5 6 8 8 6 5 6 6 7 6 6 8 9 11 21 23 24
81 82 84 85 80 47 10 7 8 5 9 7 5 4 5 4 5 5 4 5 6 7 7 8 6 4 5 5 5 6 7 7 7 6 5 6 8 8 7 7 10 9 16 21 24
82 82 83 89 39 13 10 8 6 5 14 9 6 4 3 4 5 3 3 5 6 8 8 7 5 5 5 5 5 8 5 5 6 7 8 6 9 15 9 8 11 11 11 18 23
82 82 83 83 26 16 8 6 5 8 21 6 4 3 3 3 5 4 3 4 7 7 7 8 6 6 6 6 5 6 4 5 6 7 8 7 8 10 10 12 14 12 12 14 22
82 81 81 22 31 20 8 6 8 15 21 8 4 4 4 3 4 5 4 4 4 6 6 7 5 5 5 5 5 4 4 5 6 7 10 10 8 10 10 12 10 20 15 15 24
82 80 71 33 12 7 8 9 14 18 9 8 6 5 4 4 4 5 6 6 7 10 11 8 7 5 5 6 5 5 5 10 13 11 11 9 8 12 11 10 11 19 19 23 23
83 79 46 25 14 12 11 13 24 13 11 7 6 5 6 4 4 5 6 7 6 6 7 10 10 7 6 6 8 7 7 10 20 12 11 13 11 10 7 6 10 12 24 25 26
81 20 11 14 17 14 14 17 18 15 9 9 9 9 8 5 4 5 5 7 6 6 11 10 9 5 5 5 6 8 10 6 9 9 9 9 12 8 7 7 7 17 22 27 28
41 23 15 8 13 14 15 22 14 10 8 8 12 9 10 7 6 6 7 5 6 5 6 9 13 6 5 5 6 7 6 9 9 21 21 11 14 11 18 12 12 18 21 28 30
35 16 15 11 14 18 17 14 11 8 8 9 11 11 10 9 8 10 11 6 6 4 4 5 10 9 7 9 8 7 8 8 6 10 14 16 13 17 18 14 17 18 20 28 28
20 16 14 12 19 17 16 12 19 8 7 8 8 10 11 9 11 12 11 12 10 10 6 5 6 11 8 6 6 6 8 8 11 21 14 16 13 8 10 10 12 13 25 29 26
25 16 7 11 15 14 13 10 7 7 7 8 9 9 9 11 14 10 10 8 9 9 16 14 10 12 11 7 7 7 6 7 11 16 21 18 13 14 19 19 20 24 26 34 31
21 16 11 16 12 15 16 15 13 8 7 8 9 9 10 12 10 12 10 8 8 8 48 23 15 23 11 13 10 14 7 6 9 17 15 10 38 46 51 48 35 33 36 35 35
24 16 16 37 22 20 18 14 15 16 12 7 12 10 11 15 13 12 9 8 7 30 11 15 28 18 10 7 7 10 10 8 8 9 12 13 46 50 48 57 65 38 41 36 31
28 22 22 23 25 25 28 22 17 16 22 21 19 14 13 15 13 15 11 12 13 13 18 18 28 20 16 10 10 9 9 10 8 6 7 9 38 33 40 38 38 37 37 37 38
19 18 18 29 22 23 23 24 16 18 18 18 19 17 18 12 13 10 7 9 10 18 26 33 26 28 26 29 26 18 11 19 9 10 14 20 41 47 49 51 52 46 39 37 34

GFSSW_sfc_rhum_078.txt.gz
RH
78 78 80 82 82 82 83 82 82 82 81 82 83 84 86 90 89 64 19 16 26 76 76 36 36 35 37 46 41 34 51 51 40 15 16 27 26 24 25 31 30 33 40 40 53
79 78 79 80 80 82 82 83 82 82 82 82 82 84 86 92 64 29 29 59 63 82 30 24 22 26 39 33 24 32 46 26 21 11 10 19 22 27 29 33 46 47 40 40 69
78 80 81 78 77 81 81 81 82 82 81 82 83 84 86 89 25 11 75 75 82 70 21 16 14 20 30 26 25 26 25 17 11 12 13 13 23 26 32 38 45 52 48 44 51
80 79 77 77 78 80 81 80 80 80 81 82 83 85 90 61 6 22 75 78 81 40 24 16 17 28 32 30 24 18 13 11 10 10 11 11 18 33 27 28 37 43 44 45 49
78 80 79 80 80 80 80 79 80 80 80 81 83 85 49 17 14 36 79 73 46 35 27 20 24 30 31 26 21 18 13 10 9 9 9 10 11 16 28 27 35 39 42 47 49
80 82 82 82 82 80 80 79 79 78 79 80 82 86 52 24 8 53 46 48 35 32 26 21 23 25 25 23 20 15 11 9 9 8 9 10 11 15 29 31 37 39 43 44 48
82 82 82 81 80 79 79 78 77 77 78 78 76 62 39 10 8 38 39 37 33 28 23 19 17 25 19 19 14 10 10 9 8 9 9 10 10 17 29 34 38 40 41 42 46
80 81 82 81 80 79 78 77 75 76 77 79 78 64 26 12 11 10 28 29 26 26 20 17 17 17 17 12 10 11 14 15 9 9 7 10 14 13 30 36 40 39 40 42 46
80 81 82 82 81 80 80 77 77 75 77 82 70 54 22 19 16 12 7 13 24 21 19 13 16 16 11 14 16 16 16 14 11 7 9 10 12 13 30 35 39 39 40 41 47
81 80 81 82 80 79 78 79 68 74 60 50 31 28 14 8 9 8 8 13 21 22 20 21 19 16 17 18 19 18 16 14 13 8 9 10 12 12 27 34 38 38 39 42 48
82 82 82 81 80 76 81 44 21 20 16 17 16 19 13 9 8 9 8 8 16 22 27 23 24 21 16 15 12 13 14 14 11 8 11 11 12 10 15 32 35 36 39 46 48
81 82 83 83 77 75 84 36 29 16 20 12 10 9 8 7 9 7 8 8 13 17 21 23 24 17 12 12 13 13 14 13 11 11 11 10 11 10 10 15 30 34 40 47 56
82 83 83 84 77 51 29 21 18 17 17 13 10 10 10 8 9 8 8 10 9 14 14 20 17 12 12 12 12 12 15 12 12 10 11 14 13 13 11 12 27 33 41 48 61
82 83 83 82 36 53 27 21 18 20 26 18 14 11 10 10 10 6 5 8 10 8 10 13 10 10 11 12 10 14 9 9 10 16 16 12 17 17 12 13 31 34 44 50 59
83 82 83 82 68 52 19 23 22 17 34 15 12 9 10 10 9 8 6 7 9 10 11 10 9 10 11 10 10 11 9 9 9 14 18 13 19 18 18 16 18 38 41 51 56
82 81 81 67 84 58 39 36 20 25 33 17 11 11 11 10 9 8 6 6 7 10 10 10 8 8 10 8 10 9 11 15 16 15 16 13 19 11 16 13 15 25 37 49 57
82 81 81 54 50 33 42 26 27 33 16 15 16 13 14 15 12 10 9 9 10 16 15 10 9 9 8 11 9 13 16 20 21 19 18 13 19 14 14 13 12 21 37 50 57
83 81 81 63 69 54 35 26 38 21 21 15 14 14 18 14 13 12 12 11 8 12 14 14 14 9 6 11 11 13 14 22 22 22 16 21 21 16 12 10 12 18 36 52 61
82 69 52 43 51 44 32 38 32 26 17 17 16 20 18 14 15 15 16 16 10 11 14 13 14 7 7 6 10 12 16 13 16 27 24 22 16 15 22 34 39 41 54 60 68
95 77 56 33 40 38 36 44 27 18 15 16 21 19 19 15 17 18 19 14 13 14 17 21 21 12 8 9 8 11 11 21 22 30 24 24 25 22 25 39 44 52 65 67 69
76 55 35 31 32 40 45 39 23 17 16 18 16 17 15 17 18 20 19 13 12 14 15 26 28 23 17 14 11 14 15 15 15 22 21 27 25 25 31 24 35 44 57 64 68
66 51 29 28 38 52 48 34 32 18 16 16 14 15 18 20 20 20 20 18 12 17 20 23 26 31 18 12 12 14 14 14 16 19 33 29 25 41 62 66 46 49 57 62 65
69 56 30 24 36 36 28 21 22 24 21 20 18 22 17 22 23 22 18 12 11 16 25 24 34 32 29 18 14 13 11 13 19 21 16 21 22 50 67 75 66 76 77 75 80
68 50 42 40 42 46 48 39 35 26 23 27 34 27 33 24 25 22 18 14 11 13 57 40 42 40 48 38 25 24 18 18 20 26 21 20 22 56 76 76 75 76 81 82 82
73 58 41 47 38 36 43 37 37 38 28 30 31 32 40 43 36 32 26 23 20 26 22 20 39 45 42 34 25 29 26 31 24 34 24 23 35 65 75 81 74 76 77 71 66
66 55 52 48 40 34 44 45 36 37 37 31 34 31 32 49 51 51 44 38 27 20 22 33 34 51 44 37 49 62 45 41 57 62 53 55 62 69 69 70 68 72 71 70 74
64 55 56 58 39 37 37 30 31 30 34 30 32 39 39 37 42 38 40 34 30 26 21 38 46 47 41 43 38 71 71 68 82 79 76 98 94 92 87 85 90 85 70 82 85

GFSSW_sfc_rhum_084.txt.gz
RH
76 75 76 79 80 81 82 82 82 82 82 82 82 83 85 87 89 76 18 18 32 79 68 67 48 45 56 64 58 51 68 68 50 42 22 24 34 34 36 46 44 45 55 57 70
76 77 77 77 79 80 81 82 82 82 82 82 83 84 85 88 72 35 33 67 79 74 46 40 41 45 58 54 60 59 70 48 32 28 16 13 29 31 44 51 54 61 67 67 72
77 79 80 78 78 82 82 82 81 82 82 82 83 84 86 91 17 5 75 79 75 79 34 33 26 43 47 46 43 46 39 27 22 18 14 14 28 31 46 55 53 61 78 75 81
80 80 80 81 82 83 82 82 81 82 82 82 83 85 87 72 6 15 82 85 82 64 27 19 18 21 34 37 29 30 25 23 16 18 12 13 30 34 40 40 39 53 69 75 80
82 83 83 84 84 84 84 82 81 82 82 82 82 82 52 15 10 36 75 80 67 37 24 21 20 28 35 35 33 30 26 17 12 11 12 12 22 33 38 35 48 58 66 74 76
83 83 84 84 83 84 84 82 81 82 82 79 80 82 40 13 7 39 41 38 31 28 27 21 18 21 28 34 31 24 19 14 11 11 12 12 13 31 30 48 59 65 68 71 74
85 85 85 84 84 83 83 81 82 84 84 82 80 67 34 8 10 48 48 36 34 26 21 25 21 29 33 30 19 19 13 11 11 14 11 12 11 24 24 49 57 66 68 70 72
85 85 85 84 84 83 81 81 83 83 84 83 79 72 12 9 16 16 31 29 35 36 27 23 22 23 28 22 13 15 17 22 13 12 11 10 13 15 52 54 56 60 63 68 70
87 86 85 84 84 83 81 82 80 76 80 80 73 40 12 18 15 17 22 16 21 36 35 20 24 28 24 21 24 21 23 20 14 11 13 12 13 13 42 53 58 55 56 58 62
88 88 87 86 84 83 82 80 74 78 79 62 38 30 16 12 12 12 12 14 13 23 32 31 28 30 23 26 37 29 21 24 18 13 13 15 13 12 17 51 56 56 56 57 58
89 88 88 86 84 80 87 27 24 22 22 19 16 17 12 11 11 12 10 11 14 32 35 36 36 36 29 26 20 20 19 19 19 14 16 18 16 14 20 52 55 56 57 57 57
90 90 89 86 84 83 65 27 27 28 34 21 20 16 13 12 14 12 10 12 25 25 35 36 42 29 25 22 20 21 20 22 18 17 16 15 15 12 25 52 49 52 53 53 57
91 90 90 88 82 61 56 27 28 40 27 17 14 14 12 14 15 14 11 13 16 24 31 26 26 23 24 24 23 24 24 21 20 19 16 16 19 17 15 41 48 47 46 49 53
92 90 89 88 58 63 45 37 45 37 25 16 15 13 13 13 13 10 10 11 16 14 16 25 24 22 24 23 22 29 19 17 18 21 22 18 24 20 18 20 45 47 47 46 50
92 90 88 84 74 62 39 56 49 22 20 13 16 12 13 15 12 12 11 13 13 12 14 16 16 20 22 18 18 20 16 16 18 23 25 23 21 20 21 16 18 24 45 44 44
90 88 84 84 94 74 60 57 23 23 23 19 17 16 17 17 15 12 14 12 13 14 14 13 11 12 14 13 15 15 18 19 23 21 26 20 20 23 16 11 14 26 29 39 44
88 83 87 71 55 61 59 24 25 27 20 22 22 18 23 19 16 15 17 18 15 18 19 15 12 12 10 15 16 16 23 30 28 28 28 24 20 22 15 13 13 13 39 43 44
85 86 83 77 84 65 31 22 31 24 26 20 19 20 23 17 17 17 19 23 19 18 19 18 17 12 11 12 13 18 20 27 30 29 25 28 24 20 15 15 16 18 23 39 44
86 71 67 54 68 66 25 36 32 29 23 20 22 26 24 20 20 20 21 22 19 20 28 23 19 13 11 10 10 17 20 16 18 30 26 26 22 19 18 16 26 49 55 42 40
77 69 46 57 59 29 25 45 33 24 20 24 34 29 28 23 22 22 23 19 17 18 21 25 32 23 18 14 16 12 13 18 22 49 44 32 30 24 21 21 40 47 52 48 60
60 39 36 57 43 40 38 39 30 23 23 27 29 29 26 26 24 24 23 17 16 18 24 43 38 26 26 23 20 20 20 19 19 24 37 37 34 27 37 78 89 82 66 73 73
59 40 36 39 43 64 48 44 40 27 31 30 29 26 29 25 24 23 21 21 17 28 26 38 38 35 25 20 23 17 18 19 27 34 29 32 26 81 84 85 79 89 93 88 85
64 62 41 37 50 46 43 35 29 35 36 37 36 38 34 33 43 32 30 28 25 32 29 33 36 42 32 28 31 38 29 19 24 33 30 34 26 80 82 81 84 90 88 91 93
65 45 42 45 52 49 45 38 39 32 37 40 38 38 42 46 47 36 45 35 30 32 58 46 52 50 39 39 37 42 39 41 26 33 31 27 32 86 94 94 89 95 85 91 92
70 70 56 52 48 50 53 44 43 41 35 42 43 44 48 64 56 57 53 47 37 48 37 35 38 50 44 38 42 45 64 62 51 34 26 38 72 85 90 92 94 90 89 91 93
69 65 66 66 60 46 59 50 42 36 42 46 54 42 46 58 51 55 59 65 51 40 44 40 35 59 44 35 41 54 55 57 74 76 93 87 90 88 87 88 89 88 89 92 90
80 71 63 71 57 55 47 49 39 38 35 39 45 53 48 45 41 40 44 43 44 62 56 45 46 47 46 44 48 67 77 75 78 81 90 88 90 89 90 91 97 94 90 93 95